QPF
0.00 0.01 0.02 0.03 0.07 0.08 0.07 0.05 0.02 0.01 0.01 0.01 0.00 0.02 0.04 0.04 0.06 0.07 0.14 0.16 0.11 0.09 0.08 0.06 0.08 0.07 0.06 0.07 0.07 0.06 0.05 0.04 0.04 0.06 0.06 0.06 0.07 0.07 0.09 0.09 0.09 0.10 0.10 0.10 0.10 0.09 0.09 0.07 0.05
0.00 0.01 0.05 0.07 0.08 0.09 0.09 0.06 0.03 0.03 0.03 0.01 0.00 0.00 0.02 0.03 0.04 0.09 0.16 0.12 0.09 0.09 0.09 0.06 0.06 0.06 0.07 0.07 0.05 0.04 0.04 0.04 0.04 0.05 0.05 0.06 0.08 0.07 0.07 0.08 0.08 0.09 0.10 0.09 0.09 0.09 0.07 0.07 0.05
0.00 0.01 0.03 0.05 0.06 0.06 0.08 0.07 0.04 0.03 0.02 0.01 0.01 0.00 0.03 0.08 0.11 0.17 0.14 0.08 0.04 0.04 0.04 0.03 0.04 0.04 0.04 0.04 0.03 0.03 0.04 0.04 0.04 0.05 0.05 0.06 0.09 0.08 0.06 0.06 0.06 0.07 0.08 0.09 0.09 0.09 0.08 0.07 0.05
0.01 0.01 0.01 0.02 0.03 0.03 0.05 0.07 0.03 0.02 0.01 0.01 0.01 0.01 0.04 0.09 0.16 0.22 0.12 0.07 0.04 0.03 0.02 0.02 0.03 0.04 0.04 0.03 0.03 0.02 0.03 0.03 0.03 0.04 0.04 0.06 0.08 0.07 0.06 0.06 0.06 0.06 0.07 0.08 0.07 0.07 0.07 0.05 0.04
0.02 0.01 0.02 0.04 0.02 0.02 0.03 0.03 0.02 0.01 0.01 0.02 0.02 0.03 0.05 0.08 0.10 0.12 0.07 0.04 0.04 0.04 0.03 0.01 0.02 0.03 0.03 0.03 0.02 0.02 0.02 0.02 0.02 0.03 0.04 0.04 0.06 0.06 0.06 0.06 0.06 0.07 0.07 0.06 0.04 0.04 0.04 0.03 0.03
0.01 0.01 0.05 0.05 0.02 0.02 0.01 0.01 0.01 0.01 0.01 0.02 0.02 0.04 0.07 0.07 0.05 0.05 0.03 0.05 0.05 0.04 0.04 0.02 0.01 0.03 0.03 0.02 0.02 0.03 0.02 0.02 0.02 0.02 0.03 0.04 0.04 0.04 0.06 0.06 0.07 0.08 0.05 0.04 0.03 0.03 0.03 0.03 0.04
0.01 0.02 0.07 0.04 0.03 0.01 0.01 0.01 0.01 0.02 0.03 0.03 0.02 0.03 0.06 0.08 0.05 0.03 0.03 0.04 0.05 0.04 0.04 0.04 0.04 0.03 0.03 0.02 0.03 0.02 0.02 0.02 0.01 0.02 0.04 0.04 0.05 0.04 0.06 0.07 0.08 0.08 0.06 0.05 0.05 0.04 0.04 0.03 0.03
0.00 0.01 0.04 0.03 0.02 0.01 0.01 0.01 0.02 0.03 0.02 0.01 0.01 0.03 0.05 0.04 0.03 0.03 0.02 0.03 0.03 0.03 0.03 0.04 0.06 0.06 0.04 0.03 0.03 0.02 0.02 0.03 0.02 0.03 0.06 0.07 0.07 0.06 0.08 0.10 0.09 0.07 0.06 0.05 0.05 0.05 0.03 0.03 0.03
0.00 0.00 0.01 0.03 0.02 0.01 0.01 0.01 0.01 0.01 0.01 0.01 0.01 0.01 0.03 0.03 0.03 0.02 0.02 0.03 0.04 0.03 0.03 0.03 0.04 0.04 0.04 0.04 0.03 0.03 0.03 0.04 0.06 0.08 0.09 0.12 0.12 0.12 0.16 0.13 0.10 0.08 0.06 0.05 0.04 0.03 0.03 0.03 0.03
0.00 0.01 0.01 0.01 0.01 0.01 0.00 0.00 0.00 0.02 0.03 0.01 0.01 0.01 0.02 0.02 0.02 0.03 0.03 0.04 0.04 0.04 0.04 0.03 0.04 0.04 0.03 0.03 0.03 0.05 0.05 0.07 0.11 0.13 0.12 0.13 0.14 0.19 0.22 0.18 0.12 0.08 0.06 0.05 0.04 0.04 0.03 0.03 0.03
0.00 0.00 0.00 0.00 0.00 0.00 0.00 0.00 0.00 0.01 0.03 0.02 0.01 0.02 0.02 0.02 0.02 0.02 0.03 0.04 0.02 0.02 0.03 0.04 0.04 0.03 0.03 0.04 0.03 0.04 0.04 0.07 0.11 0.10 0.11 0.11 0.14 0.24 0.27 0.21 0.16 0.14 0.10 0.08 0.07 0.08 0.06 0.03 0.04
0.00 0.00 0.00 0.00 0.00 0.00 0.00 0.00 0.01 0.01 0.02 0.02 0.01 0.01 0.01 0.02 0.03 0.04 0.03 0.03 0.02 0.02 0.02 0.03 0.04 0.03 0.03 0.03 0.04 0.04 0.05 0.07 0.10 0.11 0.11 0.12 0.20 0.29 0.28 0.21 0.18 0.16 0.13 0.12 0.11 0.10 0.07 0.04 0.02
0.00 0.00 0.00 0.00 0.00 0.00 0.00 0.00 0.00 0.01 0.01 0.02 0.02 0.01 0.01 0.03 0.03 0.03 0.01 0.01 0.02 0.02 0.02 0.01 0.02 0.03 0.04 0.05 0.08 0.06 0.08 0.10 0.12 0.13 0.15 0.17 0.22 0.26 0.22 0.16 0.15 0.12 0.08 0.09 0.08 0.07 0.06 0.04 0.02
0.00 0.00 0.00 0.00 0.00 0.00 0.01 0.01 0.01 0.01 0.01 0.02 0.02 0.01 0.01 0.02 0.02 0.02 0.01 0.01 0.02 0.02 0.03 0.02 0.02 0.03 0.04 0.04 0.07 0.09 0.12 0.13 0.13 0.14 0.16 0.17 0.19 0.20 0.18 0.16 0.14 0.11 0.08 0.07 0.07 0.06 0.07 0.05 0.05
0.00 0.00 0.00 0.01 0.01 0.01 0.01 0.02 0.01 0.01 0.00 0.01 0.00 0.00 0.01 0.02 0.02 0.03 0.02 0.02 0.03 0.02 0.03 0.02 0.01 0.03 0.04 0.05 0.06 0.07 0.08 0.10 0.11 0.15 0.18 0.17 0.18 0.19 0.17 0.15 0.13 0.12 0.09 0.07 0.06 0.06 0.06 0.05 0.05
0.00 0.01 0.01 0.00 0.01 0.00 0.01 0.03 0.02 0.00 0.00 0.01 0.00 0.00 0.00 0.02 0.02 0.02 0.02 0.02 0.02 0.02 0.03 0.02 0.01 0.02 0.02 0.05 0.05 0.05 0.06 0.09 0.12 0.14 0.19 0.17 0.15 0.16 0.20 0.17 0.13 0.09 0.06 0.06 0.08 0.08 0.08 0.09 0.08
0.01 0.01 0.00 0.00 0.00 0.01 0.00 0.01 0.01 0.00 0.01 0.01 0.01 0.01 0.01 0.01 0.02 0.01 0.01 0.01 0.02 0.03 0.03 0.03 0.02 0.02 0.02 0.03 0.04 0.03 0.04 0.06 0.08 0.11 0.14 0.13 0.10 0.09 0.12 0.12 0.10 0.07 0.07 0.06 0.06 0.08 0.11 0.15 0.14
0.00 0.00 0.00 0.00 0.00 0.00 0.00 0.00 0.00 0.01 0.01 0.01 0.01 0.01 0.01 0.02 0.02 0.02 0.01 0.01 0.02 0.02 0.02 0.02 0.03 0.03 0.03 0.04 0.05 0.04 0.03 0.04 0.04 0.06 0.07 0.08 0.07 0.07 0.07 0.06 0.06 0.06 0.07 0.08 0.07 0.09 0.12 0.14 0.15
0.00 0.00 0.00 0.00 0.00 0.00 0.00 0.00 0.00 0.01 0.01 0.01 0.02 0.02 0.02 0.01 0.01 0.02 0.02 0.02 0.02 0.01 0.01 0.03 0.03 0.04 0.04 0.04 0.05 0.05 0.06 0.04 0.03 0.02 0.02 0.04 0.04 0.04 0.05 0.05 0.07 0.06 0.09 0.09 0.07 0.11 0.15 0.15 0.16
0.00 0.00 0.00 0.00 0.00 0.00 0.00 0.01 0.00 0.01 0.01 0.01 0.02 0.03 0.02 0.00 0.00 0.02 0.02 0.02 0.02 0.02 0.03 0.04 0.04 0.05 0.04 0.04 0.04 0.04 0.04 0.03 0.03 0.02 0.03 0.04 0.03 0.02 0.04 0.07 0.07 0.08 0.09 0.11 0.11 0.12 0.11 0.10 0.14
0.01 0.00 0.00 0.00 0.00 0.00 0.01 0.04 0.01 0.00 0.00 0.01 0.01 0.01 0.01 0.01 0.00 0.00 0.01 0.01 0.02 0.03 0.06 0.09 0.06 0.05 0.04 0.04 0.03 0.03 0.03 0.02 0.02 0.03 0.04 0.03 0.02 0.02 0.03 0.03 0.04 0.06 0.07 0.10 0.11 0.10 0.11 0.11 0.12
0.01 0.00 0.01 0.00 0.00 0.00 0.00 0.02 0.01 0.00 0.00 0.00 0.00 0.01 0.01 0.01 0.01 0.00 0.00 0.01 0.02 0.04 0.06 0.06 0.05 0.04 0.03 0.02 0.02 0.02 0.03 0.03 0.04 0.03 0.03 0.02 0.02 0.01 0.02 0.03 0.04 0.05 0.05 0.09 0.07 0.09 0.12 0.14 0.14
0.01 0.00 0.00 0.00 0.00 0.00 0.00 0.01 0.01 0.00 0.01 0.01 0.00 0.00 0.00 0.01 0.01 0.01 0.00 0.01 0.01 0.03 0.02 0.03 0.06 0.04 0.03 0.02 0.02 0.03 0.03 0.04 0.03 0.03 0.04 0.04 0.04 0.02 0.02 0.05 0.06 0.07 0.07 0.08 0.07 0.10 0.10 0.12 0.16
0.00 0.00 0.00 0.01 0.01 0.01 0.01 0.01 0.01 0.00 0.00 0.01 0.01 0.01 0.00 0.00 0.01 0.01 0.00 0.00 0.01 0.01 0.00 0.01 0.03 0.02 0.02 0.02 0.02 0.03 0.04 0.04 0.04 0.04 0.05 0.04 0.04 0.03 0.03 0.04 0.07 0.07 0.08 0.07 0.06 0.07 0.08 0.11 0.16
0.00 0.01 0.03 0.07 0.05 0.02 0.01 0.01 0.01 0.00 0.00 0.00 0.03 0.03 0.00 0.01 0.01 0.01 0.00 0.00 0.00 0.00 0.00 0.00 0.01 0.01 0.01 0.01 0.02 0.03 0.04 0.05 0.05 0.03 0.04 0.04 0.04 0.04 0.03 0.04 0.06 0.06 0.06 0.07 0.07 0.07 0.08 0.08 0.08
0.00 0.02 0.03 0.04 0.02 0.00 0.01 0.01 0.01 0.00 0.00 0.00 0.00 0.00 0.00 0.00 0.00 0.01 0.01 0.00 0.01 0.00 0.00 0.00 0.01 0.01 0.01 0.01 0.02 0.03 0.04 0.04 0.05 0.05 0.04 0.04 0.03 0.04 0.03 0.03 0.04 0.04 0.06 0.06 0.07 0.07 0.07 0.07 0.06
0.00 0.00 0.00 0.00 0.00 0.00 0.00 0.01 0.00 0.00 0.00 0.00 0.00 0.00 0.00 0.00 0.00 0.00 0.01 0.01 0.01 0.00 0.00 0.00 0.01 0.01 0.01 0.01 0.01 0.02 0.02 0.03 0.04 0.05 0.05 0.04 0.03 0.03 0.03 0.03 0.04 0.04 0.05 0.06 0.06 0.05 0.06 0.08 0.06
0.00 0.00 0.00 0.00 0.00 0.01 0.01 0.01 0.00 0.00 0.00 0.00 0.01 0.00 0.00 0.00 0.00 0.00 0.01 0.01 0.00 0.00 0.01 0.01 0.01 0.01 0.01 0.01 0.01 0.02 0.02 0.02 0.03 0.04 0.04 0.04 0.04 0.04 0.04 0.04 0.05 0.05 0.06 0.05 0.05 0.04 0.05 0.07 0.07
0.00 0.00 0.00 0.00 0.00 0.01 0.02 0.02 0.01 0.00 0.00 0.00 0.01 0.00 0.00 0.00 0.00 0.00 0.00 0.00 0.00 0.00 0.01 0.02 0.01 0.01 0.01 0.01 0.01 0.02 0.02 0.02 0.03 0.03 0.03 0.04 0.04 0.04 0.04 0.05 0.06 0.06 0.06 0.06 0.06 0.05 0.06 0.06 0.07
0.01 0.00 0.00 0.00 0.00 0.00 0.01 0.02 0.00 0.00 0.00 0.00 0.00 0.00 0.00 0.00 0.00 0.00 0.01 0.01 0.01 0.01 0.03 0.03 0.02 0.01 0.01 0.01 0.01 0.01 0.02 0.03 0.04 0.04 0.04 0.03 0.03 0.03 0.04 0.04 0.05 0.05 0.06 0.06 0.05 0.05 0.06 0.07 0.07
MSLP
997.67 998.63 1000.11 1001.93 1003.85 1005.63 1007.07 1008.07 1008.62 1008.81 1008.84 1008.88 1009.09 1009.53 1010.19 1010.99 1011.77 1012.39 1012.76 1012.83 1012.66 1012.33 1011.99 1011.74 1011.67 1011.79 1012.07 1012.42 1012.78 1013.06 1013.25 1013.37 1013.45 1013.56 1013.74 1014.00 1014.33 1014.68 1015.00 1015.22 1015.32 1015.32 1015.25 1015.15 1015.08 1015.07 1015.12 1015.22 1015.35
998.15 999.44 1001.17 1003.12 1005.02 1006.65 1007.85 1008.54 1008.79 1008.72 1008.57 1008.52 1008.72 1009.21 1009.95 1010.84 1011.69 1012.37 1012.76 1012.86 1012.71 1012.43 1012.13 1011.95 1011.95 1012.15 1012.48 1012.87 1013.23 1013.52 1013.70 1013.79 1013.84 1013.92 1014.07 1014.30 1014.59 1014.89 1015.16 1015.33 1015.41 1015.38 1015.31 1015.22 1015.17 1015.18 1015.26 1015.39 1015.52
998.74 1000.32 1002.24 1004.25 1006.09 1007.54 1008.47 1008.88 1008.87 1008.61 1008.33 1008.24 1008.46 1009.01 1009.82 1010.75 1011.64 1012.32 1012.70 1012.79 1012.64 1012.38 1012.14 1012.03 1012.12 1012.40 1012.80 1013.23 1013.63 1013.92 1014.09 1014.15 1014.18 1014.23 1014.34 1014.52 1014.76 1015.01 1015.23 1015.37 1015.43 1015.41 1015.35 1015.30 1015.30 1015.35 1015.46 1015.60 1015.73
999.38 1001.18 1003.22 1005.23 1006.95 1008.21 1008.92 1009.10 1008.89 1008.51 1008.19 1008.11 1008.38 1008.99 1009.84 1010.79 1011.64 1012.27 1012.60 1012.64 1012.47 1012.23 1012.04 1012.01 1012.19 1012.55 1013.02 1013.51 1013.92 1014.22 1014.38 1014.43 1014.44 1014.46 1014.53 1014.68 1014.87 1015.08 1015.27 1015.39 1015.45 1015.45 1015.43 1015.43 1015.47 1015.57 1015.70 1015.84 1015.94
1000.03 1001.96 1004.03 1005.97 1007.55 1008.63 1009.15 1009.18 1008.88 1008.47 1008.19 1008.17 1008.51 1009.17 1010.03 1010.94 1011.72 1012.25 1012.48 1012.45 1012.25 1012.02 1011.88 1011.93 1012.19 1012.62 1013.15 1013.67 1014.11 1014.41 1014.56 1014.60 1014.60 1014.60 1014.66 1014.79 1014.96 1015.15 1015.31 1015.43 1015.49 1015.52 1015.55 1015.59 1015.68 1015.80 1015.94 1016.06 1016.11
1000.68 1002.62 1004.62 1006.43 1007.85 1008.76 1009.15 1009.11 1008.82 1008.48 1008.30 1008.40 1008.83 1009.53 1010.38 1011.21 1011.87 1012.27 1012.38 1012.26 1012.03 1011.81 1011.72 1011.84 1012.17 1012.66 1013.22 1013.76 1014.19 1014.47 1014.62 1014.65 1014.65 1014.67 1014.74 1014.87 1015.04 1015.22 1015.38 1015.50 1015.57 1015.62 1015.67 1015.75 1015.86 1015.99 1016.11 1016.18 1016.18
1001.31 1003.15 1004.99 1006.61 1007.85 1008.61 1008.93 1008.90 1008.70 1008.51 1008.49 1008.75 1009.28 1010.01 1010.82 1011.54 1012.06 1012.31 1012.31 1012.11 1011.86 1011.66 1011.63 1011.80 1012.19 1012.70 1013.27 1013.78 1014.18 1014.43 1014.56 1014.60 1014.62 1014.67 1014.77 1014.93 1015.12 1015.31 1015.47 1015.58 1015.65 1015.70 1015.75 1015.83 1015.94 1016.05 1016.14 1016.16 1016.10
1001.93 1003.59 1005.21 1006.59 1007.62 1008.26 1008.55 1008.58 1008.52 1008.52 1008.71 1009.14 1009.77 1010.52 1011.27 1011.88 1012.26 1012.38 1012.27 1012.03 1011.77 1011.61 1011.63 1011.86 1012.27 1012.79 1013.32 1013.79 1014.13 1014.33 1014.43 1014.48 1014.53 1014.63 1014.78 1014.99 1015.21 1015.41 1015.56 1015.65 1015.69 1015.70 1015.73 1015.78 1015.86 1015.95 1016.00 1015.98 1015.86
1002.58 1004.00 1005.34 1006.46 1007.29 1007.81 1008.08 1008.21 1008.32 1008.53 1008.92 1009.51 1010.23 1010.99 1011.67 1012.18 1012.43 1012.44 1012.26 1012.00 1011.77 1011.66 1011.75 1012.02 1012.45 1012.94 1013.41 1013.80 1014.06 1014.21 1014.27 1014.33 1014.41 1014.56 1014.78 1015.04 1015.30 1015.50 1015.63 1015.67 1015.66 1015.62 1015.58 1015.59 1015.63 1015.68 1015.70 1015.66 1015.53
1003.27 1004.44 1005.50 1006.35 1006.98 1007.39 1007.66 1007.87 1008.14 1008.55 1009.12 1009.83 1010.61 1011.36 1011.98 1012.39 1012.55 1012.48 1012.27 1012.03 1011.85 1011.82 1011.96 1012.28 1012.70 1013.15 1013.55 1013.84 1014.01 1014.09 1014.13 1014.18 1014.31 1014.51 1014.79 1015.09 1015.37 1015.57 1015.67 1015.65 1015.56 1015.44 1015.33 1015.27 1015.27 1015.30 1015.32 1015.29 1015.19
1004.01 1004.96 1005.76 1006.38 1006.82 1007.13 1007.39 1007.68 1008.07 1008.62 1009.31 1010.11 1010.91 1011.64 1012.19 1012.51 1012.59 1012.49 1012.29 1012.09 1011.98 1012.03 1012.24 1012.59 1013.00 1013.40 1013.71 1013.91 1014.00 1014.02 1014.03 1014.09 1014.24 1014.50 1014.82 1015.16 1015.44 1015.63 1015.67 1015.59 1015.41 1015.21 1015.03 1014.91 1014.87 1014.90 1014.95 1014.98 1014.95
1004.83 1005.60 1006.19 1006.61 1006.91 1007.14 1007.38 1007.71 1008.17 1008.80 1009.56 1010.37 1011.16 1011.83 1012.30 1012.55 1012.59 1012.47 1012.30 1012.17 1012.14 1012.26 1012.53 1012.90 1013.30 1013.65 1013.90 1014.03 1014.05 1014.02 1014.01 1014.08 1014.26 1014.54 1014.89 1015.24 1015.52 1015.67 1015.66 1015.51 1015.26 1014.99 1014.74 1014.58 1014.53 1014.58 1014.69 1014.81 1014.90
1005.70 1006.35 1006.80 1007.09 1007.28 1007.45 1007.67 1008.00 1008.49 1009.13 1009.87 1010.65 1011.37 1011.96 1012.35 1012.55 1012.55 1012.45 1012.32 1012.25 1012.30 1012.49 1012.80 1013.19 1013.57 1013.89 1014.09 1014.17 1014.16 1014.11 1014.10 1014.18 1014.37 1014.66 1015.02 1015.35 1015.61 1015.72 1015.67 1015.46 1015.16 1014.83 1014.55 1014.38 1014.34 1014.43 1014.62 1014.86 1015.08
1006.57 1007.17 1007.55 1007.77 1007.91 1008.04 1008.23 1008.55 1009.00 1009.59 1010.27 1010.95 1011.58 1012.07 1012.39 1012.53 1012.53 1012.44 1012.36 1012.35 1012.45 1012.69 1013.03 1013.42 1013.79 1014.09 1014.28 1014.35 1014.34 1014.31 1014.31 1014.39 1014.58 1014.87 1015.19 1015.50 1015.71 1015.78 1015.69 1015.45 1015.13 1014.79 1014.51 1014.35 1014.34 1014.49 1014.76 1015.12 1015.49
1007.37 1007.96 1008.33 1008.55 1008.69 1008.81 1008.98 1009.25 1009.64 1010.14 1010.70 1011.26 1011.77 1012.17 1012.43 1012.54 1012.55 1012.50 1012.46 1012.50 1012.64 1012.89 1013.23 1013.61 1013.98 1014.27 1014.47 1014.57 1014.59 1014.59 1014.62 1014.71 1014.89 1015.14 1015.42 1015.66 1015.82 1015.85 1015.74 1015.50 1015.18 1014.86 1014.61 1014.48 1014.52 1014.73 1015.08 1015.53 1016.02
1008.01 1008.63 1009.04 1009.30 1009.47 1009.61 1009.77 1009.99 1010.29 1010.67 1011.10 1011.53 1011.92 1012.24 1012.47 1012.59 1012.63 1012.63 1012.65 1012.72 1012.87 1013.12 1013.44 1013.80 1014.15 1014.45 1014.68 1014.82 1014.91 1014.96 1015.02 1015.12 1015.27 1015.46 1015.67 1015.84 1015.94 1015.93 1015.81 1015.59 1015.31 1015.04 1014.84 1014.76 1014.84 1015.09 1015.49 1016.01 1016.59
1008.42 1009.07 1009.56 1009.90 1010.14 1010.32 1010.47 1010.64 1010.84 1011.09 1011.37 1011.68 1011.99 1012.26 1012.49 1012.66 1012.77 1012.85 1012.93 1013.04 1013.20 1013.42 1013.70 1014.02 1014.34 1014.65 1014.91 1015.11 1015.26 1015.38 1015.47 1015.57 1015.69 1015.81 1015.92 1016.01 1016.04 1016.00 1015.88 1015.70 1015.49 1015.29 1015.15 1015.12 1015.23 1015.49 1015.91 1016.45 1017.07
1008.56 1009.25 1009.82 1010.26 1010.59 1010.82 1010.98 1011.09 1011.19 1011.31 1011.46 1011.66 1011.90 1012.17 1012.45 1012.72 1012.95 1013.15 1013.31 1013.47 1013.63 1013.81 1014.03 1014.28 1014.57 1014.87 1015.16 1015.42 1015.64 1015.81 1015.95 1016.04 1016.11 1016.15 1016.17 1016.17 1016.14 1016.07 1015.97 1015.83 1015.69 1015.57 1015.49 1015.50 1015.62 1015.87 1016.26 1016.79 1017.41
1008.42 1009.17 1009.83 1010.38 1010.80 1011.09 1011.24 1011.30 1011.29 1011.27 1011.31 1011.42 1011.63 1011.94 1012.32 1012.72 1013.12 1013.47 1013.75 1013.97 1014.14 1014.28 1014.43 1014.62 1014.84 1015.12 1015.42 1015.72 1016.00 1016.23 1016.39 1016.48 1016.51 1016.47 1016.41 1016.32 1016.23 1016.14 1016.06 1015.98 1015.91 1015.86 1015.84 1015.88 1015.99 1016.20 1016.53 1016.99 1017.57
1008.08 1008.87 1009.63 1010.29 1010.81 1011.15 1011.29 1011.27 1011.15 1011.01 1010.92 1010.96 1011.17 1011.54 1012.05 1012.63 1013.23 1013.76 1014.19 1014.50 1014.69 1014.80 1014.89 1014.98 1015.14 1015.37 1015.66 1015.99 1016.31 1016.59 1016.78 1016.87 1016.86 1016.77 1016.63 1016.48 1016.35 1016.25 1016.19 1016.16 1016.16 1016.17 1016.19 1016.23 1016.31 1016.46 1016.71 1017.09 1017.60
1007.63 1008.48 1009.34 1010.11 1010.71 1011.08 1011.21 1011.11 1010.87 1010.58 1010.38 1010.34 1010.54 1010.99 1011.64 1012.42 1013.23 1013.98 1014.58 1014.99 1015.22 1015.32 1015.34 1015.36 1015.43 1015.61 1015.87 1016.20 1016.55 1016.86 1017.09 1017.19 1017.17 1017.05 1016.87 1016.68 1016.52 1016.41 1016.38 1016.39 1016.45 1016.50 1016.55 1016.58 1016.62 1016.69 1016.85 1017.12 1017.54
1007.18 1008.12 1009.08 1009.96 1010.63 1011.02 1011.11 1010.91 1010.54 1010.11 1009.77 1009.65 1009.83 1010.34 1011.11 1012.08 1013.11 1014.06 1014.83 1015.37 1015.67 1015.77 1015.74 1015.69 1015.69 1015.80 1016.02 1016.35 1016.71 1017.06 1017.31 1017.45 1017.44 1017.33 1017.14 1016.93 1016.76 1016.67 1016.65 1016.70 1016.79 1016.87 1016.93 1016.94 1016.93 1016.92 1016.98 1017.15 1017.48
1006.83 1007.87 1008.94 1009.91 1010.65 1011.05 1011.09 1010.80 1010.28 1009.70 1009.22 1009.00 1009.14 1009.67 1010.54 1011.65 1012.86 1014.00 1014.94 1015.60 1015.98 1016.10 1016.06 1015.95 1015.89 1015.93 1016.12 1016.43 1016.81 1017.18 1017.49 1017.67 1017.70 1017.61 1017.44 1017.25 1017.10 1017.01 1017.01 1017.07 1017.18 1017.27 1017.32 1017.31 1017.25 1017.18 1017.15 1017.23 1017.47
1006.64 1007.78 1008.96 1010.02 1010.80 1011.21 1011.21 1010.83 1010.18 1009.45 1008.83 1008.49 1008.56 1009.07 1009.99 1011.19 1012.53 1013.81 1014.89 1015.68 1016.14 1016.30 1016.26 1016.13 1016.03 1016.03 1016.19 1016.49 1016.87 1017.28 1017.63 1017.87 1017.96 1017.92 1017.80 1017.64 1017.50 1017.43 1017.43 1017.50 1017.60 1017.69 1017.72 1017.69 1017.59 1017.47 1017.37 1017.38 1017.54
1006.57 1007.81 1009.09 1010.22 1011.06 1011.48 1011.45 1011.00 1010.25 1009.40 1008.65 1008.20 1008.17 1008.63 1009.53 1010.77 1012.17 1013.55 1014.73 1015.62 1016.16 1016.38 1016.38 1016.25 1016.14 1016.12 1016.26 1016.55 1016.95 1017.39 1017.79 1018.08 1018.24 1018.26 1018.18 1018.06 1017.94 1017.88 1017.88 1017.94 1018.03 1018.10 1018.11 1018.06 1017.93 1017.78 1017.64 1017.60 1017.70
1006.57 1007.90 1009.24 1010.44 1011.32 1011.77 1011.74 1011.27 1010.47 1009.55 1008.71 1008.15 1008.03 1008.40 1009.25 1010.45 1011.85 1013.26 1014.51 1015.46 1016.08 1016.37 1016.42 1016.34 1016.24 1016.24 1016.38 1016.67 1017.08 1017.54 1017.97 1018.32 1018.53 1018.60 1018.58 1018.49 1018.39 1018.33 1018.32 1018.36 1018.42 1018.47 1018.47 1018.40 1018.27 1018.10 1017.95 1017.88 1017.94
1006.54 1007.92 1009.31 1010.55 1011.48 1011.97 1011.98 1011.54 1010.76 1009.82 1008.95 1008.33 1008.13 1008.41 1009.16 1010.29 1011.64 1013.02 1014.27 1015.27 1015.95 1016.32 1016.44 1016.42 1016.37 1016.40 1016.55 1016.86 1017.27 1017.75 1018.20 1018.58 1018.83 1018.95 1018.95 1018.89 1018.81 1018.74 1018.71 1018.73 1018.77 1018.79 1018.79 1018.72 1018.60 1018.44 1018.30 1018.22 1018.25
1006.41 1007.79 1009.19 1010.46 1011.42 1011.97 1012.06 1011.70 1011.01 1010.14 1009.30 1008.68 1008.43 1008.63 1009.27 1010.29 1011.54 1012.86 1014.08 1015.09 1015.81 1016.25 1016.45 1016.51 1016.53 1016.61 1016.80 1017.11 1017.53 1018.00 1018.46 1018.85 1019.12 1019.26 1019.29 1019.24 1019.17 1019.09 1019.05 1019.05 1019.07 1019.08 1019.08 1019.03 1018.93 1018.81 1018.69 1018.62 1018.63
1006.13 1007.48 1008.85 1010.09 1011.08 1011.70 1011.89 1011.67 1011.12 1010.38 1009.65 1009.09 1008.84 1008.99 1009.54 1010.44 1011.57 1012.79 1013.95 1014.93 1015.68 1016.18 1016.47 1016.62 1016.72 1016.86 1017.08 1017.41 1017.83 1018.29 1018.73 1019.11 1019.38 1019.53 1019.57 1019.54 1019.47 1019.39 1019.35 1019.33 1019.35 1019.37 1019.38 1019.36 1019.30 1019.22 1019.14 1019.09 1019.10
1005.75 1007.02 1008.31 1009.50 1010.48 1011.15 1011.45 1011.38 1011.02 1010.47 1009.90 1009.45 1009.25 1009.39 1009.87 1010.66 1011.67 1012.78 1013.85 1014.80 1015.55 1016.10 1016.46 1016.70 1016.89 1017.09 1017.36 1017.70 1018.11 1018.55 1018.97 1019.33 1019.59 1019.75 1019.80 1019.79 1019.73 1019.67 1019.63 1019.63 1019.65 1019.69 1019.73 1019.75 1019.74 1019.71 1019.66 1019.64 1019.65
Thickness
5868 5869 5865 5852 5830 5816 5807 5816 5825 5821 5821 5828 5829 5820 5807 5799 5786 5771 5793 5803 5801 5796 5792 5787 5786 5785 5784 5783 5782 5781 5781 5780 5779 5778 5777 5776 5775 5774 5772 5771 5769 5768 5767 5765 5764 5763 5762 5760 5759
5877 5875 5862 5846 5820 5799 5801 5819 5819 5821 5827 5833 5828 5820 5807 5799 5802 5796 5798 5803 5803 5798 5793 5788 5785 5784 5783 5782 5781 5780 5779 5778 5778 5777 5776 5775 5773 5772 5771 5769 5767 5766 5765 5764 5762 5761 5760 5759 5758
5877 5877 5854 5840 5820 5805 5803 5820 5823 5830 5835 5829 5819 5816 5806 5797 5802 5800 5803 5807 5804 5799 5793 5787 5785 5783 5782 5781 5780 5779 5778 5777 5776 5775 5774 5773 5772 5771 5769 5768 5766 5765 5764 5763 5761 5760 5759 5758 5757
5877 5870 5858 5836 5816 5822 5823 5827 5833 5829 5830 5830 5820 5804 5803 5810 5808 5807 5809 5809 5805 5799 5793 5787 5785 5783 5781 5780 5779 5778 5778 5777 5775 5774 5773 5772 5770 5769 5768 5766 5765 5764 5763 5762 5760 5759 5758 5757 5756
5880 5861 5837 5822 5819 5829 5837 5840 5839 5826 5821 5821 5814 5796 5793 5809 5814 5813 5811 5810 5805 5800 5794 5788 5785 5782 5780 5779 5778 5778 5777 5776 5775 5773 5772 5770 5769 5768 5767 5765 5764 5762 5762 5761 5759 5758 5757 5756 5756
5869 5859 5826 5813 5818 5831 5839 5844 5837 5827 5821 5819 5810 5796 5792 5809 5810 5811 5812 5809 5807 5802 5794 5788 5784 5782 5780 5779 5778 5777 5777 5776 5774 5772 5771 5770 5768 5767 5766 5765 5763 5762 5760 5759 5758 5757 5756 5755 5755
5865 5849 5825 5822 5820 5824 5835 5845 5834 5826 5819 5819 5818 5797 5793 5803 5808 5811 5810 5809 5808 5803 5796 5790 5786 5782 5781 5780 5779 5777 5777 5775 5774 5772 5771 5770 5769 5767 5766 5764 5763 5761 5760 5759 5758 5757 5756 5755 5755
5884 5856 5833 5829 5822 5822 5838 5842 5839 5830 5822 5831 5826 5800 5790 5801 5810 5810 5808 5806 5805 5802 5798 5794 5790 5786 5784 5781 5779 5778 5777 5775 5774 5772 5771 5770 5769 5767 5766 5764 5763 5761 5760 5759 5758 5757 5756 5755 5755
5891 5851 5830 5830 5826 5828 5841 5835 5836 5839 5828 5825 5824 5815 5809 5811 5811 5805 5801 5800 5798 5798 5797 5795 5793 5790 5788 5785 5781 5779 5777 5776 5774 5773 5772 5771 5769 5768 5766 5765 5763 5762 5761 5759 5758 5758 5756 5756 5755
5877 5841 5839 5849 5846 5840 5840 5836 5834 5827 5816 5812 5812 5813 5814 5812 5807 5800 5796 5794 5793 5793 5795 5796 5794 5792 5790 5788 5783 5782 5780 5777 5775 5774 5773 5772 5770 5769 5768 5765 5763 5762 5761 5760 5759 5758 5757 5757 5757
5871 5850 5853 5855 5856 5851 5841 5838 5840 5824 5809 5810 5806 5807 5809 5807 5804 5800 5797 5796 5795 5795 5795 5794 5794 5791 5790 5788 5785 5783 5782 5779 5777 5775 5774 5772 5771 5769 5768 5766 5763 5762 5761 5760 5759 5758 5758 5759 5759
5866 5862 5862 5858 5860 5853 5845 5840 5833 5826 5819 5824 5819 5815 5810 5806 5803 5801 5798 5798 5798 5796 5794 5794 5792 5790 5788 5787 5785 5784 5783 5780 5777 5775 5774 5773 5771 5769 5769 5766 5765 5763 5762 5761 5760 5760 5760 5761 5761
5863 5860 5864 5864 5860 5855 5848 5838 5831 5825 5830 5828 5822 5816 5811 5808 5806 5805 5804 5802 5799 5796 5795 5794 5792 5788 5786 5785 5784 5784 5783 5780 5778 5775 5773 5772 5770 5769 5768 5767 5765 5764 5763 5763 5762 5761 5761 5761 5761
5866 5864 5861 5861 5857 5853 5840 5834 5830 5824 5830 5824 5818 5813 5812 5810 5809 5806 5804 5801 5799 5797 5796 5794 5792 5789 5786 5784 5783 5783 5781 5780 5778 5776 5774 5771 5770 5768 5767 5766 5765 5764 5763 5763 5762 5761 5760 5760 5760
5870 5854 5849 5854 5853 5850 5839 5821 5823 5829 5829 5820 5817 5814 5813 5812 5811 5807 5805 5803 5801 5800 5798 5795 5793 5790 5786 5784 5783 5783 5781 5780 5778 5776 5774 5771 5769 5767 5766 5765 5764 5764 5764 5763 5762 5761 5760 5759 5759
5858 5842 5827 5845 5852 5852 5835 5805 5824 5834 5828 5818 5817 5815 5813 5812 5812 5812 5809 5806 5805 5802 5798 5797 5796 5791 5787 5784 5783 5782 5781 5780 5778 5775 5773 5771 5769 5768 5766 5765 5764 5764 5764 5763 5761 5760 5759 5757 5756
5838 5827 5825 5837 5854 5851 5836 5815 5828 5836 5829 5820 5819 5818 5815 5812 5813 5813 5813 5810 5807 5803 5799 5796 5795 5791 5789 5786 5784 5783 5781 5780 5778 5776 5773 5771 5769 5768 5767 5765 5765 5764 5764 5763 5762 5760 5758 5755 5754
5830 5832 5834 5834 5849 5848 5835 5826 5831 5837 5831 5825 5823 5821 5817 5814 5814 5816 5815 5813 5809 5805 5801 5797 5795 5792 5790 5788 5785 5783 5781 5780 5778 5776 5773 5771 5769 5768 5767 5766 5765 5764 5762 5760 5760 5757 5756 5755 5753
5854 5846 5839 5844 5859 5849 5836 5829 5831 5838 5834 5828 5826 5823 5820 5818 5821 5820 5817 5815 5810 5806 5801 5797 5794 5792 5790 5787 5784 5781 5779 5779 5778 5777 5774 5772 5770 5769 5767 5766 5764 5763 5761 5759 5758 5756 5754 5752 5753
5852 5843 5841 5847 5859 5850 5836 5831 5838 5841 5839 5837 5832 5827 5825 5822 5820 5818 5816 5815 5811 5806 5801 5798 5794 5793 5791 5788 5786 5784 5782 5781 5780 5779 5776 5773 5771 5769 5768 5765 5763 5762 5760 5758 5757 5756 5752 5752 5753
5847 5844 5844 5842 5850 5852 5838 5821 5830 5841 5846 5844 5842 5838 5834 5828 5823 5819 5817 5815 5812 5807 5803 5801 5796 5795 5793 5791 5789 5787 5783 5781 5779 5777 5775 5774 5772 5770 5768 5766 5764 5762 5760 5757 5757 5755 5753 5749 5751
5839 5860 5855 5846 5834 5828 5834 5804 5822 5836 5836 5839 5841 5841 5838 5835 5830 5825 5821 5817 5814 5811 5809 5804 5800 5797 5795 5793 5790 5785 5780 5777 5777 5777 5776 5774 5772 5770 5768 5766 5764 5762 5760 5758 5757 5757 5755 5751 5748
5851 5867 5858 5848 5837 5832 5836 5819 5822 5837 5828 5834 5842 5844 5843 5841 5836 5831 5827 5822 5820 5817 5813 5808 5803 5800 5797 5794 5791 5787 5783 5781 5780 5779 5776 5774 5772 5770 5769 5766 5764 5761 5759 5758 5757 5756 5754 5753 5750
5863 5855 5848 5844 5831 5809 5827 5818 5814 5834 5835 5840 5844 5846 5848 5846 5842 5837 5833 5828 5823 5821 5817 5812 5805 5801 5798 5795 5792 5788 5784 5782 5779 5777 5775 5773 5772 5771 5769 5767 5763 5761 5759 5757 5756 5755 5753 5752 5751
5852 5829 5803 5793 5793 5799 5831 5822 5823 5845 5854 5852 5849 5848 5849 5849 5844 5838 5833 5828 5824 5821 5818 5814 5807 5801 5799 5796 5793 5790 5787 5784 5780 5778 5776 5773 5772 5770 5768 5767 5763 5761 5758 5756 5755 5753 5751 5750 5749
5840 5831 5801 5781 5788 5809 5826 5817 5835 5858 5861 5861 5858 5855 5853 5850 5846 5841 5837 5832 5827 5823 5819 5815 5808 5803 5800 5797 5793 5791 5788 5785 5783 5780 5778 5774 5772 5771 5769 5766 5763 5760 5758 5755 5753 5751 5750 5749 5747
5833 5834 5843 5822 5817 5808 5813 5825 5840 5857 5854 5856 5854 5852 5849 5848 5846 5842 5839 5834 5830 5825 5821 5817 5810 5805 5802 5799 5795 5791 5789 5786 5783 5781 5779 5776 5774 5772 5769 5765 5762 5759 5756 5754 5751 5749 5747 5746 5744
5852 5846 5836 5820 5797 5787 5801 5812 5817 5832 5840 5845 5845 5846 5846 5846 5845 5842 5838 5835 5832 5828 5823 5819 5813 5807 5804 5800 5797 5793 5790 5787 5783 5781 5778 5775 5773 5770 5767 5764 5760 5757 5755 5752 5750 5747 5745 5743 5741
5835 5834 5831 5828 5822 5797 5785 5800 5841 5839 5842 5842 5843 5847 5846 5845 5843 5839 5837 5834 5831 5828 5823 5818 5813 5808 5803 5800 5796 5793 5790 5787 5783 5779 5777 5774 5771 5768 5764 5761 5758 5755 5752 5750 5747 5744 5742 5739 5737
5840 5835 5832 5811 5807 5812 5801 5805 5849 5849 5849 5847 5846 5847 5847 5845 5843 5838 5835 5831 5828 5824 5819 5815 5812 5807 5803 5799 5796 5792 5788 5785 5781 5777 5775 5772 5769 5766 5762 5759 5755 5752 5749 5746 5743 5741 5738 5735 5732